Location: Pasadena, ca
(34.1243°N, 118.1037°W)
Time: 15:04:29
(UTC-08:00)

Tiangong 2 - Pass Details

Date: 16 November 2017
Orbit: 386 x 391 km, 42.8° (Epoch: 17 November)

Event Time Altitude Azimuth Distance (km) Brightness Sun altitude
Rises 17:43:23 0° 276° (W) 2,269 6.4 -11.7°
Drops below altitude 10° 17:47:24 10° 226° (SW) 1,412 4.9 -12.5°
Maximum altitude 17:47:34 10° 223° (SW) 1,410 4.8 -12.6°
Sets 17:51:45 0° 169° (S) 2,253 5.0 -13.4°
